O3B PFM (39191 NORAD) Tracking and Keplerian Element Data

This shows tracking and keplerian element data for the satellite.

Feedback or suggestion? Click here.




ElementValue
Catalog39191
NameO3B PFM
Epoch Orbit21172
Epoch Day34.52370733
Epoch Year2025
RAAN350.2764
Inclination0.0527
Eccentricity0.0002719
Argument of Perigee323.965
Mean Anonmoly45.7316
Mean Motion5.00115086
Decay Rate-1.3E-07
L11 39191U 13031D 25034.52370733 -.00000013 00000+0 00000+0 0 9998
L22 39191 0.0527 350.2764 0002719 323.9650 45.7316 5.00115086211728



Live tracking and technical data element details for O3B PFM (NORAD 39191). O3B PFM can be tracked NOW for your location showing map with azimuth and elevation plus other details from your city location.







IsCatalogInMostPopularTable: catalog: 39191, numindb: 469
Update: records affected: 1



GetName: 39191 O3B PFM

Hit Count: updated at: Thu, 15 May 2025 09:25:39 GMT